Overview Statistics Trail Chart Weather Telemetry Raw packets
 

This is the latest recevied weather packets stored in our database for station/object IZ5RIE-13. If no packets are shown the sender has not sent any weather packets the latest 10 day(s).

<< 32 33 34 35 36 37 38 >>
Time Temp. Humidity Pressure Rain* Wind** Luminosity Snow
1788076528 28.33° C 100% 1016.7 hPa - - - -
1788075628 27.78° C 100% 1016.5 hPa - - - -
1788075596 27.78° C 100% 1016.6 hPa - - - -
1788075571 27.78° C 100% 1016.6 hPa - - - -
1788074671 27.22° C 100% 1016.4 hPa - - - -
1788073775 27.22° C 100% 1016.3 hPa - - - -
1788072875 27.22° C 100% 1016.3 hPa - - - -
1788071975 27.78° C 100% 1016.2 hPa - - - -
1788071074 29.44° C 100% 1016.3 hPa - - - -
1788070174 27.78° C 100% 1016.2 hPa - - - -
1788069274 25° C 100% 1016.2 hPa - - - -
1788068374 24.44° C 100% 1016.2 hPa - - - -
1788067474 24.44° C 100% 1016.2 hPa - - - -
1788066574 23.89° C 100% 1016.1 hPa - - - -
1788065674 23.89° C 100% 1016 hPa - - - -
1788064773 23.89° C 100% 1015.9 hPa - - - -
1788063873 23.89° C 100% 1016 hPa - - - -
1788062973 23.89° C 100% 1015.9 hPa - - - -
1788062073 23.89° C 100% 1015.8 hPa - - - -
1788061173 23.89° C 100% 1015.8 hPa - - - -
1788060273 23.89° C 100% 1015.9 hPa - - - -
1788059372 23.89° C 100% 1015.9 hPa - - - -
1788058472 23.89° C 100% 1015.9 hPa - - - -
1788057571 23.89° C 100% 1016 hPa - - - -
1788056671 23.89° C 100% 1016 hPa - - - -

* Rain since midnight (hover to see other rain measurements)
** Current wind speed in m/s (hover to see current wind gust speed)